Torna al catalogo

STARLINK-35008

AttivoComunicazioniVLEO
NORAD 65408·PAYLOAD·🇺🇸 United States

Lanciato Aug 31, 2025 da Cape Canaveral Space Force Station

Loading…

Prossimi Passaggi (prossime 24 ore)

TLE

AggiornatoSource: CelesTrak SupGP

Epoca: Sep 14, 2026, 22:30 UTC

1 65408C 25192E   26257.93798611  .00033838  00000+0  99996-3 0  2574
2 65408  53.1591  71.6904 0001181  79.0329 217.7791 15.34367006    17

Traccia STARLINK-35008 in tempo reale con AllMySat

Download on the App Store